User: anonymous   Login
Location: Corona
(40.7470°N, 73.8601°W)
Time: 22:40:39
(UTC+00:00)
Language:

Cosmos 1190 Rocket - Orbit

View from above orbital plane
View from above orbital plane
View from above satellite
View from above satellite

Ground track
Ground track

The orbit data is extracted from the following two-line orbital elements,

1 11870U 80056B   19315.18414282  .00000032  00000-0  19590-4 0  9998
2 11870  74.0554  37.0028 0015343 134.5825 225.6583 14.36944729 60778
Epoch (UTC): 11 November 2019 04:25:09
Eccentricity: 0.0015343
inclination: 74.0554°
perigee height: 757 km
apogee height: 779 km
right ascension of ascending node: 37.0028°
argument of perigee: 134.5825°
revolutions per day: 14.36944729
mean anomaly at epoch: 225.6583°
orbit number at epoch: 6077

The dashed part of the orbit path shows where the satellite is in the earth's shadow,  

DLR